Gallup, NM

5:24 AM MDT on June 24, 2017 (GMT -0600)
Gallup Municipal

Weather History for KGUP - October, 2013

Change the Weather History Date:

Saturday, October 26, 2013

  Actual Average Record
Temperature  
Mean Temperature 46 °F -  
Max Temperature 63 °F 58 °F 75 °F (2008)
Min Temperature 30 °F 26 °F 14 °F (1997)
Degree Days  
Heating Degree Days 19    
Moisture  
Dew Point 36 °F    
Average Humidity 73    
Maximum Humidity 96    
Minimum Humidity 38    
Precipitation  
Precipitation 0.00 in - - ()
Sea Level Pressure  
Sea Level Pressure 30.22 in    
Wind  
Wind Speed 3 mph (NE)    
Max Wind Speed 12 mph    
Max Gust Speed 18 mph    
Visibility 10 miles    
Events      
Averages and records for this station are not official NWS values.
T = Trace of Precipitation, MM = Missing Value Source: NWS Daily Summary

Daily Weather History Graph

Daily Weather History Graph

Search for Another Location

Airport or City:

Trip Planner

Search our weather history database for the weather conditions in past years. The results will help you decide how hot, cold, wet, or windy it might be!

Date:

Astronomy

Oct. 26, 2013 Rise Set
Actual Time 7:31 AM MDT 6:26 PM MDT
Civil Twilight 7:05 AM MDT 6:52 PM MDT
Nautical Twilight 6:35 AM MDT 7:21 PM MDT
Astronomical Twilight 6:05 AM MDT 7:51 PM MDT
Moon No Moon Rise 1:47 PM MDT (10/26)
Length of Visible Light 11h 46m
Length of Day
10h 54m
Waning Gibbous, 52% of the Moon is Illuminated
Oct 26
Waning Gibbous
Oct 26
Last Quarter
Nov 3
New
Nov 9
First Quarter
Nov 17
Full

Hourly Weather History & Observations

Time (MDT) Temp. Windchill Dew Point Humidity Pressure Visibility Wind Dir Wind Speed Gust Speed Precip Events Conditions
12:53 AM 36.0 °F 33.3 °F 34.0 °F 93% 30.12 in 10.0 mi South 3.5 mph - N/A   Clear
1:53 AM 34.0 °F - 33.1 °F 96% 30.12 in 10.0 mi Calm Calm - N/A   Clear
2:53 AM 33.1 °F 28.7 °F 32.0 °F 96% 30.19 in 10.0 mi East 4.6 mph - N/A   Clear
3:53 AM 34.0 °F - 32.0 °F 92% 30.25 in 10.0 mi Calm Calm - N/A   Clear
4:53 AM 32.0 °F - 30.9 °F 96% 30.26 in 10.0 mi Calm Calm - N/A   Clear
5:53 AM 32.0 °F 28.7 °F 30.9 °F 96% 30.26 in 10.0 mi NE 3.5 mph - N/A   Clear
6:53 AM 30.0 °F - 28.9 °F 96% 30.30 in 10.0 mi Calm Calm - N/A   Clear
7:53 AM 32.0 °F - 30.0 °F 92% 30.34 in 10.0 mi Calm Calm - N/A   Clear
8:53 AM 35.1 °F - 33.1 °F 92% 30.37 in 10.0 mi Calm Calm - N/A   Clear
9:53 AM 42.1 °F - 37.0 °F 82% 30.32 in 10.0 mi Calm Calm - N/A   Clear
10:53 AM 46.9 °F - 39.0 °F 74% 30.29 in 10.0 mi Calm Calm - N/A   Clear
11:53 AM 55.9 °F - 42.1 °F 60% 30.24 in 10.0 mi East 10.4 mph - N/A   Clear
12:53 PM 57.9 °F - 41.0 °F 53% 30.21 in 10.0 mi East 11.5 mph 18.4 mph N/A   Clear
1:53 PM 60.1 °F - 37.9 °F 44% 30.18 in 10.0 mi NE 10.4 mph - N/A   Clear
2:53 PM 62.1 °F - 37.0 °F 39% 30.15 in 10.0 mi NE 6.9 mph - N/A   Clear
3:53 PM 62.1 °F - 36.0 °F 38% 30.14 in 10.0 mi Variable 5.8 mph - N/A   Partly Cloudy
4:53 PM 62.1 °F - 36.0 °F 38% 30.15 in 10.0 mi NNE 9.2 mph - N/A   Clear
5:53 PM 59.0 °F - 39.0 °F 48% 30.16 in 10.0 mi North 10.4 mph - N/A   Clear
6:53 PM 55.0 °F - 39.0 °F 55% 30.22 in 10.0 mi North 10.4 mph - N/A   Clear
7:53 PM 50.0 °F - 39.0 °F 66% 30.26 in 10.0 mi ENE 6.9 mph - N/A   Clear
8:53 PM 45.0 °F 42.6 °F 37.9 °F 76% 30.27 in 10.0 mi NE 4.6 mph - N/A   Clear
9:53 PM 43.0 °F - 37.0 °F 80% 30.23 in 10.0 mi Calm Calm - N/A   Clear
10:53 PM 45.0 °F - 36.0 °F 71% 30.19 in 10.0 mi Calm Calm - N/A   Clear
11:53 PM 39.0 °F - 34.0 °F 82% 30.15 in 10.0 mi Calm Calm - N/A   Clear